Location: Newark
(41.0400°S, 62.7845°W)
Time: 09:19:33
(UTC+00:00)

Transit 2A - Pass Details

Date: 30 November 2021
Orbit: 591 x 967 km, 66.7° (Epoch: 19 January)

Event Time Altitude Azimuth Distance (km) Brightness Sun altitude
Rises 00:25:04 0° 193° (SSW) 2,871 9.9 -10.0°
Reaches altitude 10° 00:28:58 10° 158° (SSE) 1,959 8.4 -10.5°
Maximum altitude 00:30:24 11° 139° (SE) 1,871 8.0 -10.7°
Drops below altitude 10° 00:31:50 10° 119° (ESE) 1,968 7.9 -10.9°
Enters shadow 00:34:05 - 96° (E) 2,421 8.2 -11.2°
Sets 00:35:46 0° 85° (E) 2,908 - -11.5°
